This is the latest recevied weather packets stored in our database for station/object DL9GJ-6. If no packets are shown the sender has not sent any weather packets the latest 10 day(s).
| Time | Temp. | Humidity | Pressure | Rain* | Wind** | Luminosity | Snow |
|---|---|---|---|---|---|---|---|
| 1777974262 | 17.22° C | 73% | 1006.9 hPa | 0 mm | - | 323 W/m² | - |
| 1777973901 | 17.22° C | 73% | 1006.9 hPa | 0 mm | - | 338 W/m² | - |
| 1777973889 | 17.22° C | 73% | 1006.9 hPa | 0 mm | - | 338 W/m² | - |
| 1777973541 | 17.22° C | 73% | 1007 hPa | 0 mm | - | 303 W/m² | - |
| 1777973182 | 17.22° C | 73% | 1007 hPa | 0 mm | - | 303 W/m² | - |
| 1777973168 | 17.22° C | 73% | 1007 hPa | 0 mm | - | 303 W/m² | - |
| 1777972822 | 17.22° C | 75% | 1007.1 hPa | 0 mm | - | 287 W/m² | - |
| 1777972810 | 17.22° C | 75% | 1007.1 hPa | 0 mm | - | 287 W/m² | - |
| 1777972462 | 17.22° C | 74% | 1007.1 hPa | 0 mm | - | 356 W/m² | - |
| 1777972101 | 17.22° C | 77% | 1007.1 hPa | 0 mm | - | 476 W/m² | - |
| 1777971742 | 16.67° C | 76% | 1007.2 hPa | 0 mm | - | 458 W/m² | - |
| 1777971730 | 16.67° C | 76% | 1007.2 hPa | 0 mm | - | 458 W/m² | - |
| 1777971382 | 16.67° C | 76% | 1007.2 hPa | 0 mm | - | 332 W/m² | - |
| 1777971023 | 16.67° C | 77% | 1007.2 hPa | 0 mm | - | 372 W/m² | - |
| 1777971008 | 16.67° C | 77% | 1007.2 hPa | 0 mm | - | 372 W/m² | - |
| 1777970663 | 16.67° C | 75% | 1007.2 hPa | 0 mm | - | 338 W/m² | - |
| 1777970302 | 16.67° C | 76% | 1007.3 hPa | 0 mm | - | 406 W/m² | - |
| 1777970291 | 16.67° C | 76% | 1007.3 hPa | 0 mm | - | 406 W/m² | - |
| 1777969943 | 16.67° C | 77% | 1007.3 hPa | 0 mm | - | 401 W/m² | - |
| 1777969581 | 16.67° C | 77% | 1007.3 hPa | 0 mm | - | 430 W/m² | - |
| 1777969221 | 16.11° C | 77% | 1007.4 hPa | 0 mm | - | 345 W/m² | - |
| 1777968861 | 16.67° C | 77% | 1007.4 hPa | 0 mm | - | 463 W/m² | - |
| 1777968501 | 16.67° C | 79% | 1007.5 hPa | 0 mm | - | 372 W/m² | - |
| 1777968142 | 16.11° C | 80% | 1007.5 hPa | 0 mm | - | 524 W/m² | - |
| 1777967781 | 15.56° C | 83% | 1007.6 hPa | 0 mm | - | 650 W/m² | - |
* Rain latest hour (hover to see other rain measurements)
** Current wind speed in m/s (hover to see current wind gust speed)